Time,TemperatureF,DewpointF,PressureIn,WindDirection,WindDirectionDegrees,WindSpeedMPH,WindSpeedGustMPH,Humidity,HourlyPrecipIn,Conditions,Clouds,dailyrainin,SoftwareType,DateUTC
2013-04-27 00:01:00,75.0,65.1,30.21,NNE,13,5.2,8.3,71,0.00,,---,0.00,VWS V13.01,2013-04-27 04:01:00,
2013-04-27 00:06:00,75.2,65.4,30.21,NE,34,1.6,3.4,72,0.00,,---,0.00,VWS V13.01,2013-04-27 04:06:00,
2013-04-27 00:07:00,75.0,65.3,30.21,NNE,13,5.4,5.4,72,0.00,,---,0.00,VWS V13.01,2013-04-27 04:07:00,
2013-04-27 00:10:00,75.0,65.5,30.21,NW,321,2.2,6.5,72,0.00,,---,0.00,VWS V13.01,2013-04-27 04:10:00,
2013-04-27 00:15:00,75.1,65.5,30.21,NNE,22,9.0,10.7,72,0.00,,---,0.00,VWS V13.01,2013-04-27 04:15:00,
2013-04-27 00:21:00,75.1,65.3,30.21,NNE,32,4.6,7.1,72,0.00,,---,0.00,VWS V13.01,2013-04-27 04:21:00,
2013-04-27 00:26:00,75.0,65.1,30.21,NNE,14,5.2,7.0,71,0.00,,---,0.00,VWS V13.01,2013-04-27 04:26:00,
2013-04-27 00:31:00,75.1,65.2,30.21,NNE,28,1.1,5.3,71,0.00,,---,0.00,VWS V13.01,2013-04-27 04:31:00,
2013-04-27 00:36:00,75.0,65.1,30.20,North,350,4.6,8.1,71,0.00,,---,0.00,VWS V13.01,2013-04-27 04:36:00,
2013-04-27 00:41:00,75.0,64.8,30.21,North,354,3.2,7.3,71,0.00,,---,0.00,VWS V13.01,2013-04-27 04:41:00,
2013-04-27 00:46:00,74.9,64.8,30.20,North,352,5.7,8.1,71,0.00,,---,0.00,VWS V13.01,2013-04-27 04:46:00,
2013-04-27 00:51:00,74.9,64.8,30.20,NE,44,3.4,8.9,71,0.00,,---,0.00,VWS V13.01,2013-04-27 04:51:00,
2013-04-27 00:56:00,74.9,64.5,30.20,NNE,31,3.9,7.4,70,0.00,,---,0.00,VWS V13.01,2013-04-27 04:56:00,
2013-04-27 01:01:00,74.6,63.6,30.20,NNE,32,8.7,8.9,68,0.00,,---,0.00,VWS V13.01,2013-04-27 05:01:00,
2013-04-27 01:06:00,74.9,63.8,30.20,NNW,343,1.7,5.8,68,0.00,,---,0.00,VWS V13.01,2013-04-27 05:06:00,
2013-04-27 01:11:00,74.6,63.7,30.20,ENE,59,2.2,7.0,69,0.00,,---,0.00,VWS V13.01,2013-04-27 05:11:00,
2013-04-27 01:16:00,74.6,64.1,30.20,NW,325,1.9,8.9,70,0.00,,---,0.00,VWS V13.01,2013-04-27 05:16:00,
2013-04-27 01:21:00,74.6,64.0,30.20,NNE,32,3.8,4.3,70,0.00,,---,0.00,VWS V13.01,2013-04-27 05:21:00,
2013-04-27 01:26:00,74.4,63.1,30.19,East,87,5.2,8.0,68,0.00,,---,0.00,VWS V13.01,2013-04-27 05:26:00,
2013-04-27 01:31:00,74.3,62.9,30.20,North,10,2.3,2.8,68,0.00,,---,0.00,VWS V13.01,2013-04-27 05:31:00,
2013-04-27 01:36:00,74.1,62.5,30.19,North,11,6.4,6.6,67,0.00,,---,0.00,VWS V13.01,2013-04-27 05:36:00,
2013-04-27 01:41:00,74.3,62.5,30.19,NE,48,4.3,4.3,67,0.00,,---,0.00,VWS V13.01,2013-04-27 05:41:00,
2013-04-27 01:46:00,74.2,62.4,30.19,NNE,18,5.5,5.5,67,0.00,,---,0.00,VWS V13.01,2013-04-27 05:46:00,
2013-04-27 01:51:00,74.2,62.7,30.19,NNE,21,4.3,7.4,67,0.00,,---,0.00,VWS V13.01,2013-04-27 05:51:00,
2013-04-27 01:56:00,74.2,62.8,30.19,NNE,15,5.8,6.3,68,0.00,,---,0.00,VWS V13.01,2013-04-27 05:56:00,
2013-04-27 02:01:00,74.4,62.9,30.19,NNE,30,7.9,8.7,67,0.00,,---,0.00,VWS V13.01,2013-04-27 06:01:00,
2013-04-27 02:06:00,74.3,62.0,30.18,North,350,8.3,9.8,66,0.00,,---,0.00,VWS V13.01,2013-04-27 06:06:00,
2013-04-27 02:11:00,74.2,62.4,30.18,North,7,2.8,4.4,67,0.00,,---,0.00,VWS V13.01,2013-04-27 06:11:00,
2013-04-27 02:17:00,74.3,62.8,30.18,NE,39,4.5,7.0,67,0.00,,---,0.00,VWS V13.01,2013-04-27 06:17:00,
2013-04-27 02:22:00,74.2,62.6,30.18,North,1,4.5,7.0,67,0.00,,---,0.00,VWS V13.01,2013-04-27 06:22:00,
2013-04-27 02:27:00,74.1,62.5,30.18,NE,49,2.3,4.8,67,0.00,,---,0.00,VWS V13.01,2013-04-27 06:27:00,
2013-04-27 02:32:00,74.2,62.8,30.18,NNW,336,5.3,7.2,68,0.00,,---,0.00,VWS V13.01,2013-04-27 06:32:00,
2013-04-27 02:37:00,74.1,62.6,30.17,NNW,347,4.1,6.3,67,0.00,,---,0.00,VWS V13.01,2013-04-27 06:37:00,
2013-04-27 02:42:00,73.9,61.9,30.17,NNE,24,7.8,10.4,66,0.00,,---,0.00,VWS V13.01,2013-04-27 06:42:00,
2013-04-27 02:47:00,74.1,62.5,30.17,NE,45,3.1,5.2,67,0.00,,---,0.00,VWS V13.01,2013-04-27 06:47:00,
2013-04-27 02:52:00,74.1,62.7,30.17,NNE,18,3.1,5.9,68,0.00,,---,0.00,VWS V13.01,2013-04-27 06:52:00,
2013-04-27 02:57:00,74.2,62.1,30.17,ENE,59,5.9,7.1,66,0.00,,---,0.00,VWS V13.01,2013-04-27 06:57:00,
2013-04-27 03:02:00,74.1,61.6,30.17,NNE,31,3.1,10.0,65,0.00,,---,0.00,VWS V13.01,2013-04-27 07:02:00,
2013-04-27 03:07:00,74.3,61.7,30.17,North,353,1.6,4.2,65,0.00,,---,0.00,VWS V13.01,2013-04-27 07:07:00,
2013-04-27 03:12:00,74.0,62.1,30.17,NNE,30,7.3,8.5,66,0.00,,---,0.00,VWS V13.01,2013-04-27 07:12:00,
2013-04-27 03:17:00,74.1,62.4,30.17,NNE,32,3.0,3.0,67,0.00,,---,0.00,VWS V13.01,2013-04-27 07:17:00,
2013-04-27 03:22:00,74.2,62.7,30.17,NW,308,0.8,3.9,67,0.00,,---,0.00,VWS V13.01,2013-04-27 07:22:00,
2013-04-27 03:27:00,74.0,62.1,30.17,ENE,65,5.5,6.4,66,0.00,,---,0.00,VWS V13.01,2013-04-27 07:27:00,
2013-04-27 03:32:00,73.9,61.9,30.17,East,86,5.0,7.2,66,0.00,,---,0.00,VWS V13.01,2013-04-27 07:32:00,
2013-04-27 03:37:00,74.0,62.3,30.16,NE,39,4.7,4.7,67,0.00,,---,0.00,VWS V13.01,2013-04-27 07:37:00,
2013-04-27 03:42:00,73.8,62.6,30.16,NNE,27,4.2,7.3,68,0.00,,---,0.00,VWS V13.01,2013-04-27 07:42:00,
2013-04-27 03:47:00,73.7,62.5,30.16,ENE,70,2.1,9.3,68,0.00,,---,0.00,VWS V13.01,2013-04-27 07:47:00,
2013-04-27 03:52:00,74.2,63.0,30.16,NE,42,2.1,5.7,68,0.00,,---,0.00,VWS V13.01,2013-04-27 07:52:00,
2013-04-27 03:57:00,74.1,61.9,30.16,NE,46,7.0,9.8,66,0.00,,---,0.00,VWS V13.01,2013-04-27 07:57:00,
2013-04-27 04:02:00,74.0,62.2,30.16,North,3,3.6,4.3,66,0.00,,---,0.00,VWS V13.01,2013-04-27 08:02:00,
2013-04-27 04:07:00,74.2,62.5,30.16,NE,53,3.2,6.6,67,0.00,,---,0.00,VWS V13.01,2013-04-27 08:07:00,
2013-04-27 04:12:00,74.3,62.8,30.15,NE,49,2.9,4.0,67,0.00,,---,0.00,VWS V13.01,2013-04-27 08:12:00,
2013-04-27 04:17:00,74.2,62.9,30.15,NE,37,3.4,7.1,68,0.00,,---,0.00,VWS V13.01,2013-04-27 08:17:00,
2013-04-27 04:22:00,74.0,62.9,30.15,NE,51,6.3,9.2,68,0.00,,---,0.00,VWS V13.01,2013-04-27 08:22:00,
2013-04-27 04:27:00,74.0,62.7,30.15,NE,49,4.8,6.2,68,0.00,,---,0.00,VWS V13.01,2013-04-27 08:27:00,
2013-04-27 04:32:00,74.0,63.0,30.15,NE,46,6.2,6.3,69,0.00,,---,0.00,VWS V13.01,2013-04-27 08:32:00,
2013-04-27 04:37:00,73.9,63.1,30.15,NE,49,4.2,5.0,69,0.00,,---,0.00,VWS V13.01,2013-04-27 08:37:00,
2013-04-27 04:42:00,73.9,63.0,30.14,NE,51,3.7,3.7,69,0.00,,---,0.00,VWS V13.01,2013-04-27 08:42:00,
2013-04-27 04:47:00,74.1,62.8,30.15,NE,51,5.8,7.5,68,0.00,,---,0.00,VWS V13.01,2013-04-27 08:47:00,
2013-04-27 04:52:00,74.0,62.4,30.15,North,11,3.7,6.6,67,0.00,,---,0.00,VWS V13.01,2013-04-27 08:52:00,
2013-04-27 04:58:00,73.7,62.2,30.14,North,4,5.8,8.0,67,0.00,,---,0.00,VWS V13.01,2013-04-27 08:58:00,
2013-04-27 05:03:00,73.9,62.1,30.14,NNE,27,5.3,6.0,67,0.00,,---,0.00,VWS V13.01,2013-04-27 09:03:00,
2013-04-27 05:08:00,73.7,62.0,30.14,NE,53,6.0,7.0,67,0.00,,---,0.00,VWS V13.01,2013-04-27 09:08:00,
2013-04-27 05:13:00,73.6,62.0,30.14,NNE,21,3.6,7.3,67,0.00,,---,0.00,VWS V13.01,2013-04-27 09:13:00,
2013-04-27 05:18:00,73.5,62.2,30.14,NE,49,1.1,3.2,68,0.00,,---,0.00,VWS V13.01,2013-04-27 09:18:00,
2013-04-27 05:23:00,73.6,62.4,30.14,ENE,59,2.4,3.8,68,0.00,,---,0.00,VWS V13.01,2013-04-27 09:23:00,
2013-04-27 05:28:00,73.6,62.4,30.14,North,10,5.3,7.0,68,0.00,,---,0.00,VWS V13.01,2013-04-27 09:28:00,
2013-04-27 05:33:00,73.5,62.0,30.13,NNE,30,4.2,6.8,67,0.00,,---,0.00,VWS V13.01,2013-04-27 09:33:00,
2013-04-27 05:38:00,73.5,61.6,30.14,NNE,25,2.2,4.3,66,0.00,,---,0.00,VWS V13.01,2013-04-27 09:38:00,
2013-04-27 05:43:00,73.4,62.0,30.14,NE,44,2.1,2.5,68,0.00,,---,0.00,VWS V13.01,2013-04-27 09:43:00,
2013-04-27 05:48:00,73.6,62.5,30.13,NNE,15,3.4,7.0,68,0.00,,---,0.00,VWS V13.01,2013-04-27 09:48:00,
2013-04-27 05:53:00,73.3,62.4,30.13,NE,37,5.7,6.4,69,0.00,,---,0.00,VWS V13.01,2013-04-27 09:53:00,
2013-04-27 05:58:00,73.3,62.6,30.14,NNE,21,1.9,5.1,69,0.00,,---,0.00,VWS V13.01,2013-04-27 09:58:00,
2013-04-27 06:03:00,73.3,62.8,30.13,NNE,25,7.3,9.3,70,0.00,,---,0.00,VWS V13.01,2013-04-27 10:03:00,
2013-04-27 06:08:00,73.2,62.8,30.14,NNE,17,3.4,5.8,70,0.00,,---,0.00,VWS V13.01,2013-04-27 10:08:00,
2013-04-27 06:13:00,73.3,63.2,30.14,ENE,59,6.1,8.3,71,0.00,,---,0.00,VWS V13.01,2013-04-27 10:13:00,
2013-04-27 06:18:00,73.3,63.3,30.14,NE,48,7.8,9.6,71,0.00,,---,0.00,VWS V13.01,2013-04-27 10:18:00,
2013-04-27 06:23:00,73.5,63.8,30.14,NE,46,6.2,7.0,72,0.00,,---,0.00,VWS V13.01,2013-04-27 10:23:00,
2013-04-27 06:28:00,73.2,63.3,30.14,North,6,6.6,8.5,71,0.00,,---,0.00,VWS V13.01,2013-04-27 10:28:00,
2013-04-27 06:33:00,73.2,63.1,30.14,NNE,24,3.7,6.2,71,0.00,,---,0.00,VWS V13.01,2013-04-27 10:33:00,
2013-04-27 06:38:00,73.0,63.0,30.15,NE,42,7.9,7.9,71,0.00,,---,0.00,VWS V13.01,2013-04-27 10:38:00,
2013-04-27 06:43:00,73.1,63.2,30.15,ENE,58,3.8,7.3,71,0.00,,---,0.00,VWS V13.01,2013-04-27 10:43:00,
2013-04-27 06:48:00,73.1,63.4,30.15,NE,41,2.2,6.3,72,0.00,,---,0.00,VWS V13.01,2013-04-27 10:48:00,
2013-04-27 06:53:00,73.1,63.5,30.15,NNE,28,4.8,7.1,72,0.00,,---,0.00,VWS V13.01,2013-04-27 10:53:00,
2013-04-27 06:58:00,73.1,63.3,30.15,NE,46,3.4,4.0,72,0.00,,---,0.00,VWS V13.01,2013-04-27 10:58:00,
2013-04-27 07:03:00,73.0,63.0,30.15,NE,38,2.9,4.4,71,0.00,,---,0.00,VWS V13.01,2013-04-27 11:03:00,
2013-04-27 07:08:00,73.2,63.2,30.15,NE,37,2.2,3.2,71,0.00,,---,0.00,VWS V13.01,2013-04-27 11:08:00,
2013-04-27 07:13:00,73.0,63.0,30.16,North,3,5.9,6.6,71,0.00,,---,0.00,VWS V13.01,2013-04-27 11:13:00,
2013-04-27 07:18:00,73.1,63.1,30.16,NE,37,3.4,5.8,71,0.00,,---,0.00,VWS V13.01,2013-04-27 11:18:00,
2013-04-27 07:23:00,73.3,63.3,30.16,NE,42,3.6,6.0,71,0.00,,---,0.00,VWS V13.01,2013-04-27 11:23:00,
2013-04-27 07:28:00,73.5,63.5,30.17,NE,44,3.6,4.4,71,0.00,,---,0.00,VWS V13.01,2013-04-27 11:28:00,
2013-04-27 07:33:00,73.4,63.4,30.17,NE,38,5.4,6.4,71,0.00,,---,0.00,VWS V13.01,2013-04-27 11:33:00,
2013-04-27 07:39:00,73.6,63.1,30.17,NE,55,4.2,4.2,70,0.00,,---,0.00,VWS V13.01,2013-04-27 11:39:00,
2013-04-27 07:44:00,73.9,63.2,30.18,ENE,60,6.3,6.6,69,0.00,,---,0.00,VWS V13.01,2013-04-27 11:44:00,
2013-04-27 07:49:00,74.5,63.7,30.18,NE,52,6.8,6.8,69,0.00,,---,0.00,VWS V13.01,2013-04-27 11:49:00,
2013-04-27 07:54:00,74.5,63.2,30.18,NE,44,6.6,12.2,68,0.00,,---,0.00,VWS V13.01,2013-04-27 11:54:00,
2013-04-27 07:59:00,75.1,63.6,30.18,NE,38,5.5,5.5,67,0.00,,---,0.00,VWS V13.01,2013-04-27 11:59:00,
2013-04-27 08:04:00,75.1,63.6,30.18,NNW,335,5.0,7.3,67,0.00,,---,0.00,VWS V13.01,2013-04-27 12:04:00,
2013-04-27 08:09:00,75.4,63.2,30.17,NE,52,7.3,7.3,66,0.00,,---,0.00,VWS V13.01,2013-04-27 12:09:00,
2013-04-27 08:14:00,75.2,63.2,30.18,NNE,25,6.2,7.8,66,0.00,,---,0.00,VWS V13.01,2013-04-27 12:14:00,
2013-04-27 08:19:00,75.7,63.7,30.18,NNW,338,2.8,6.0,66,0.00,,---,0.00,VWS V13.01,2013-04-27 12:19:00,
2013-04-27 08:24:00,75.8,63.5,30.18,NNE,15,4.7,12.9,66,0.00,,---,0.00,VWS V13.01,2013-04-27 12:24:00,
2013-04-27 08:29:00,76.0,63.2,30.18,NNE,18,6.3,9.8,64,0.00,,---,0.00,VWS V13.01,2013-04-27 12:29:00,
2013-04-27 08:34:00,76.0,63.2,30.18,NNE,32,10.4,13.7,64,0.00,,---,0.00,VWS V13.01,2013-04-27 12:34:00,
2013-04-27 08:39:00,76.2,62.9,30.18,NNE,15,6.6,9.8,63,0.00,,---,0.00,VWS V13.01,2013-04-27 12:39:00,
2013-04-27 08:44:00,76.0,63.0,30.18,NNW,347,7.8,11.4,64,0.00,,---,0.00,VWS V13.01,2013-04-27 12:44:00,
2013-04-27 08:49:00,76.4,62.2,30.18,NNW,345,2.2,8.7,62,0.00,,---,0.00,VWS V13.01,2013-04-27 12:49:00,
2013-04-27 08:54:00,76.8,62.8,30.18,NE,41,6.8,8.9,62,0.00,,---,0.00,VWS V13.01,2013-04-27 12:54:00,
2013-04-27 08:59:00,76.8,61.8,30.18,North,3,6.6,10.9,60,0.00,,---,0.00,VWS V13.01,2013-04-27 12:59:00,
2013-04-27 09:04:00,77.0,62.3,30.18,North,352,3.0,8.0,60,0.00,,---,0.00,VWS V13.01,2013-04-27 13:04:00,
2013-04-27 09:09:00,77.2,61.6,30.18,NE,51,7.0,11.7,59,0.00,,---,0.00,VWS V13.01,2013-04-27 13:09:00,
2013-04-27 09:14:00,77.1,61.4,30.18,NNE,32,5.8,10.4,58,0.00,,---,0.00,VWS V13.01,2013-04-27 13:14:00,
2013-04-27 09:19:00,77.3,62.0,30.18,NE,39,6.2,7.7,59,0.00,,---,0.00,VWS V13.01,2013-04-27 13:19:00,
2013-04-27 09:24:00,77.4,62.3,30.18,NNE,30,4.6,8.0,60,0.00,,---,0.00,VWS V13.01,2013-04-27 13:24:00,
2013-04-27 09:29:00,77.8,62.0,30.17,NE,34,4.7,12.3,58,0.00,,---,0.00,VWS V13.01,2013-04-27 13:29:00,
2013-04-27 09:34:00,78.1,61.6,30.18,ENE,60,8.3,9.6,57,0.00,,---,0.00,VWS V13.01,2013-04-27 13:34:00,
2013-04-27 09:39:00,77.9,61.5,30.18,North,8,4.8,10.7,57,0.00,,---,0.00,VWS V13.01,2013-04-27 13:39:00,
2013-04-27 09:44:00,77.9,60.7,30.18,North,11,5.5,8.0,56,0.00,,---,0.00,VWS V13.01,2013-04-27 13:44:00,
2013-04-27 09:49:00,77.9,60.5,30.18,NNE,13,6.2,15.3,55,0.00,,---,0.00,VWS V13.01,2013-04-27 13:49:00,
2013-04-27 09:54:00,77.7,61.4,30.19,NNE,18,6.5,8.9,57,0.00,,---,0.00,VWS V13.01,2013-04-27 13:54:00,
2013-04-27 09:59:00,77.9,62.3,30.18,NE,39,10.0,11.0,59,0.00,,---,0.00,VWS V13.01,2013-04-27 13:59:00,
2013-04-27 10:04:00,77.4,62.2,30.19,NNE,31,7.8,11.1,60,0.00,,---,0.00,VWS V13.01,2013-04-27 14:04:00,
2013-04-27 10:09:00,77.8,62.9,30.19,NNE,27,7.6,11.5,60,0.00,,---,0.00,VWS V13.01,2013-04-27 14:09:00,
2013-04-27 10:14:00,77.7,61.5,30.18,NNE,28,8.9,14.2,58,0.00,,---,0.00,VWS V13.01,2013-04-27 14:14:00,
2013-04-27 10:19:00,77.8,61.8,30.18,East,86,5.9,9.4,58,0.00,,---,0.00,VWS V13.01,2013-04-27 14:19:00,
2013-04-27 10:24:00,78.2,62.0,30.18,NNE,15,7.1,11.8,58,0.00,,---,0.00,VWS V13.01,2013-04-27 14:24:00,
2013-04-27 10:29:00,78.1,61.8,30.18,NE,38,9.0,12.7,57,0.00,,---,0.00,VWS V13.01,2013-04-27 14:29:00,
2013-04-27 10:34:00,78.2,63.2,30.18,NE,34,6.5,10.2,60,0.00,,---,0.00,VWS V13.01,2013-04-27 14:34:00,
2013-04-27 10:39:00,78.1,62.4,30.18,NNE,15,6.5,12.0,58,0.00,,---,0.00,VWS V13.01,2013-04-27 14:39:00,
2013-04-27 10:44:00,78.5,61.9,30.18,NE,41,6.9,10.7,57,0.00,,---,0.00,VWS V13.01,2013-04-27 14:44:00,
2013-04-27 10:49:00,78.9,62.7,30.18,NE,49,7.9,10.5,58,0.00,,---,0.00,VWS V13.01,2013-04-27 14:49:00,
2013-04-27 10:54:00,79.1,62.7,30.18,NE,34,3.9,10.4,57,0.00,,---,0.00,VWS V13.01,2013-04-27 14:54:00,
2013-04-27 10:59:00,79.2,62.6,30.18,North,4,13.2,13.2,57,0.00,,---,0.00,VWS V13.01,2013-04-27 14:59:00,
2013-04-27 11:04:00,79.5,62.9,30.18,East,87,3.7,7.4,57,0.00,,---,0.00,VWS V13.01,2013-04-27 15:04:00,
2013-04-27 11:09:00,79.0,61.3,30.18,NE,34,12.5,15.3,55,0.00,,---,0.00,VWS V13.01,2013-04-27 15:09:00,
2013-04-27 11:14:00,78.2,62.6,30.18,NE,34,3.3,13.3,59,0.00,,---,0.00,VWS V13.01,2013-04-27 15:14:00,
2013-04-27 12:32:00,79.5,63.0,30.17,NNE,13,8.9,8.9,57,0.00,,---,0.00,VWS V13.01,2013-04-27 16:32:00,
2013-04-27 12:33:00,79.4,62.9,30.17,NNE,32,7.8,9.1,57,0.00,,---,0.00,VWS V13.01,2013-04-27 16:33:00,
2013-04-27 12:34:00,79.5,63.0,30.17,NNE,13,8.9,8.9,57,0.00,,---,0.00,VWS V13.01,2013-04-27 16:34:00,
2013-04-27 23:37:00,72.7,67.8,30.13,NNE,13,0.0,0.0,84,0.00,,---,0.00,VWS V13.01,2013-04-28 03:37:00,
2013-04-27 23:43:00,72.5,67.8,30.13,NNE,22,3.4,6.3,85,0.00,,---,0.00,VWS V13.01,2013-04-28 03:43:00,
2013-04-27 23:48:00,72.4,67.7,30.13,NNE,27,2.9,5.2,85,0.00,,---,0.00,VWS V13.01,2013-04-28 03:48:00,
2013-04-27 23:53:00,72.7,66.2,30.13,NNE,25,9.2,11.4,80,0.00,,---,0.00,VWS V13.01,2013-04-28 03:53:00,
2013-04-27 23:58:00,73.3,65.4,30.12,NNE,31,3.4,6.2,76,0.00,,---,0.00,VWS V13.01,2013-04-28 03:58:00,